Flag for Slovenia Weather past 2 weeks in Kranj, Slovenia

Now
36 °F

Fog.


Feels Like: 33 °F
Forecast: 36 / 44 °F
Wind: 3 mph from Northwest

Location: Ljubljana Airport / Brnik

Current Time: Dec 18, 2014 at 8:33:37 AM

Latest Report: Dec 18, 2014 at 8:00 AM


Visibility: 0 mi

Pressure: 30.07 "Hg

Humidity: 100%

Dew point: 36 °F

Location of KranjLocation

Historic Weather in Kranj — Graph

°F

Kranj temperature yesterday

Maximum temperature yesterday: 45 °F (at 11:30 AM)
Minimum temperature yesterday: 39 °F (at 8:30 PM)
Average temperature yesterday: 42 °F

Past Weeks' High & Low Weather Summary

 TemperatureHumidityPressure
High54 °F (Dec 15, 12:00 PM)100% (Dec 3, 9:30 AM)30.24 "Hg (Dec 3, 9:30 AM)
Low21 °F (Dec 12, 5:30 AM)53% (Dec 10, 1:30 PM)29.83 "Hg (Dec 16, 5:00 PM)
Average39 °F92%30.06 "Hg
* Reported Dec 3 7:00 AM — Dec 18 7:30 AM, Kranj, Weather by CustomWeather, © 2014

Note: Actual official high and low records may vary slightly from our data, if they occured in-between our weather recording intervals... More about our weather records

Advertising

Kranj weather history for previous 24 hours

 ConditionsComfort  
Time TempWeatherWind HumidityBarometerVisibility
7:30 AM
Dec 18
36 °FFog.2 mph100%30.07 "Hg1 mi
7:00 AM37 °FFog.No wind100%30.04 "Hg1 mi
6:30 AM37 °FFog.1 mph100%30.01 "Hg1 mi
6:00 AM36 °FFog.No wind100%30.01 "Hg0 mi
5:30 AM36 °FFog.1 mph100%29.98 "Hg0 mi
4:00 AM36 °FFog.No wind100%29.98 "Hg0 mi
3:30 AM36 °FFog.No wind100%29.95 "Hg1 mi
3:00 AM36 °FFog.No wind100%29.95 "Hg1 mi
2:30 AM36 °FFog.No wind100%29.95 "Hg1 mi
2:00 AM36 °FFog.1 mph93%29.95 "Hg1 mi
1:30 AM36 °FFog.1 mph100%29.95 "Hg2 mi
1:00 AM37 °FFog.1 mph100%29.92 "Hg2 mi
12:30 AM37 °FFog.3 mph100%29.95 "Hg0 mi
12:00 AM39 °FFog.1 mph100%29.95 "Hg0 mi
11:30 PM
Dec 17
39 °FLight rain. Fog.No wind100%29.95 "Hg1 mi
11:00 PM39 °FLight rain. Fog.No wind100%29.95 "Hg1 mi
10:30 PM39 °FLight rain. Fog.No wind100%29.95 "Hg2 mi
10:00 PM39 °FLight rain. Fog.1 mph100%29.95 "Hg2 mi
9:30 PM39 °FLight rain. Fog.1 mph100%29.95 "Hg2 mi
9:00 PM39 °FFog.3 mph100%29.95 "Hg2 mi
8:30 PM39 °FFog.3 mph93%29.95 "Hg1 mi
8:00 PM41 °FFog.No wind93%29.92 "Hg0 mi
7:30 PM41 °FPassing clouds.No wind100%29.92 "Hg5 mi
7:00 PM41 °FPassing clouds.1 mph100%29.95 "Hg5 mi
6:30 PM43 °FPartly cloudy.1 mph87%29.95 "Hg5 mi
6:00 PM43 °FPartly cloudy.3 mph93%29.92 "Hg5 mi
5:30 PM43 °FPartly cloudy.2 mph93%29.92 "Hg5 mi
5:00 PM43 °FPartly cloudy.5 mph93%29.92 "Hg5 mi
4:30 PM43 °FPartly cloudy.6 mph93%29.92 "Hg5 mi
4:00 PM43 °FBroken clouds.2 mph100%29.92 "Hg5 mi
3:30 PM43 °FBroken clouds.2 mph100%29.92 "Hg4 mi
3:00 PM45 °FBroken clouds.2 mph93%29.92 "Hg4 mi
2:30 PM45 °FLight rain. Broken clouds.3 mph93%29.92 "Hg4 mi
2:00 PM45 °FLight rain. Broken clouds.3 mph93%29.92 "Hg4 mi
1:30 PM45 °FLight rain. Broken clouds.2 mph93%29.95 "Hg4 mi
1:00 PM45 °FLight rain. Broken clouds.1 mph93%29.95 "Hg4 mi
12:30 PM45 °FLight rain. Broken clouds.1 mph93%29.95 "Hg4 mi
12:00 PM45 °FLight rain. Partly sunny.2 mph93%29.95 "Hg4 mi
11:30 AM45 °FLight rain. Fog.2 mph93%29.98 "Hg3 mi
11:00 AM43 °FLight rain. Fog.2 mph100%29.98 "Hg2 mi
10:30 AM43 °FLight rain. Fog.No wind100%29.98 "Hg1 mi
10:00 AM43 °FLight rain. Fog.No wind100%29.98 "Hg1 mi
9:30 AM43 °FLight rain. Fog.No wind100%29.95 "Hg1 mi
9:00 AM43 °FLight rain. Fog.No wind100%29.95 "Hg1 mi
8:30 AM41 °FLight rain. Fog.No wind100%29.95 "Hg1 mi
8:00 AM41 °FFog.No wind100%29.92 "Hg1 mi
Weather by CustomWeather, © 2014

See weather overviewHow to use our weather pages